Regional Weather Roundup
Issued by NWS Wilmington, NC

Home | Current Version | Previous Version | Text Only | Print | Product List | Glossary On
Versions: 1 2 3 4 5 6 7 8 9 10 11 12 13 14 15 16 17 18 19 20 21 22 23 24 25 26 27 28
000
ASUS42 KILM 040812
RWRILM
RWRILM
REGIONAL HOURLY WEATHER ROUNDUP
NATIONAL WEATHER SERVICE WILMINGTON NC
300 AM EST SUN DEC 04 2016

NOTE: "FAIR" INDICATES FEW OR NO CLOUDS BELOW 12,000 FEET WITH NO
SIGNIFICANT WEATHER AND/OR OBSTRUCTIONS TO VISIBILITY.

...............WFO WILMINGTON COUNTY WARNING AREA...............

......COASTAL NC AND SC COUNTIES......

CITY           SKY/WX    TMP DP  RH WIND       PRES   REMARKS
WILMINGTON     CLOUDY    45  37  73 NE6       30.24S
N MYRTLE BEACH CLOUDY    48  35  60 NE7       30.23R
MYRTLE BEACH   CLOUDY    50  34  53 N5        30.26R

......INLAND NC AND SC COUNTIES.......

CITY           SKY/WX    TMP DP  RH WIND       PRES   REMARKS
LUMBERTON      CLOUDY    47  39  74 N5        30.25R
ELIZABETHTOWN  MOCLDY    45  38  76 CALM      30.25R
WHITEVILLE     CLOUDY    46  39  77 CALM      30.23S
FLORENCE       CLOUDY    47  42  83 CALM      30.25R
DARLINGTON     CLOUDY    46  43  89 N3        30.26R
KINGSTREE      CLOUDY    45  39  81 CALM      30.25R
HARTSVILLE     CLOUDY    45  39  81 CALM      30.25R
BENNETTSVILLE  DRIZZLE   48  43  81 CALM      30.25S
CONWAY         CLOUDY    45  41  87 CALM      30.25R
GEORGETOWN     NOT AVBL
MARION         CLOUDY    45  37  76 CALM      30.25R

....................REST OF NORTH CAROLINA......................

.........EASTERN NC.........

CITY           SKY/WX    TMP DP  RH WIND       PRES   REMARKS
CAPE HATTERAS  CLOUDY    49  37  63 VRB5      30.24F
JACKSONVILLE   CLOUDY    44  38  79 NE3       30.26S
MOREHEAD CITY  CLOUDY    46  39  76 VRB5      30.24F
KENANSVILLE    CLOUDY    45  36  70 CALM      30.26R
NEW BERN       CLOUDY    44  36  73 N3        30.26S
ELIZABETH CITY CLOUDY    43  34  70 N12       30.26F

.........CENTRAL NC.........

CITY           SKY/WX    TMP DP  RH WIND       PRES   REMARKS
RALEIGH DURHAM CLOUDY    44  31  60 N3        30.27R
ROCKY MOUNT    CLOUDY    42  35  76 N8        30.27R
ROANOKE RAPIDS NOT AVBL
FAYETTEVILLE   CLOUDY    47  37  68 N6        30.26R
HOFFMAN        LGT RAIN  44  41  89 N3        30.25R

.........WESTERN NC.........

CITY           SKY/WX    TMP DP  RH WIND       PRES   REMARKS
CHARLOTTE      LGT RAIN  45  34  65 NE5       30.25R
GREENSBORO     CLOUDY    42  29  59 NE7       30.24S
HICKORY        NOT AVBL
BOONE          NOT AVBL
ASHEVILLE      NOT AVBL

.....................REST OF SOUTH CAROLINA.....................

.........EASTERN SC.........

CITY           SKY/WX    TMP DP  RH WIND       PRES   REMARKS
CHARLESTON     CLOUDY    51  37  58 N5        30.23S
BEAUFORT MCAS  CLOUDY    53  41  63 NE8       30.21S
HILTON HEAD    PTCLDY    57  43  58 VRB7G13   30.20S

.........CENTRAL SC.........

CITY           SKY/WX    TMP DP  RH WIND       PRES   REMARKS
COLUMBIA       CLOUDY    49  44  83 CALM      30.24F
ORANGEBURG     CLOUDY    49  42  77 NE3       30.25R
SUMTER SHAW    CLOUDY    47  42  81 CALM      30.23R

.........WESTERN SC.........

CITY           SKY/WX    TMP DP  RH WIND       PRES   REMARKS
GREENVILLE     NOT AVBL
ROCK HILL      LGT RAIN  43  41  93 CALM      30.25R
ANDERSON       LGT RAIN  45  42  89 NE6       30.22F
CLEMSON        NOT AVBL
GREENWOOD      LGT RAIN  45  43  93 N6        30.25R


...................COASTAL AND OFFSHORE REPORTS..................

................LOCAL PIERS AND NC RESERVE................


STATION/POSITION TIME  SKY/WX   TEMP    WIND        PRES    VSBY
                                AIR SEA DIR/SP/G
                 (UTC)          (F)     (DEG/KT/KT) (MB)    (MI)
JOHNY MRCER PIER 0748            49 63   10/  8/  9 1022.5F
NC RESRV MASNBRO 0645            47      20/  1     1023.0
OCEAN CREST PIER NOT AVBL
SPRINGMAID  PIER NOT AVBL


................COASTAL AND OFFSHORE BUOYS................


STATION/POSITION TIME  SKY/WX   TEMP    WIND        PRES    VSBY
                                AIR SEA DIR/SP/G
                 (UTC)          (F)     (DEG/KT/KT) (MB)    (MI)
DIMNDSHOAL 41025 0750            53 75   20/ 14/ 19 1023.8F
WVE H/P(F/S)=  5/ 9 SWL H/P/D(F/S/D)=  3/ 60/ 9

CAPE LOOKOUT     0800            49      10/  9/ 11 1023.4F
ONSLOW BAY 41036 NOT AVBL
ONSLOW BAY 41064 0708            54 71   40/ 10/ 14 1023.7F
ONSLOW BAY 41159 NOT AVBL
5SE WRITBC 41038 NOT AVBL
MASNBO INL 41110 0729               63                N/A
WVE H/P(F/S)=  2/ 9

WILM HARBR 41108 0756               62                N/A
WVE H/P(F/S)=  2/ 8

27SE WRITB 41037 0708            55 69   50/ 10/ 16 1023.2F
FRYING PAN 41013 0750            58 73   40/ 12/ 16 1022.4F
WVE H/P(F/S)=  3/ 9 SWL H/P/D(F/S/D)=  2/ 90/ 9

SUNST NRSH 41024 0708            51 61   40/ 12/ 16 1023.3F
CAPRS NRSH 41029 0708            55 62   50/ 10/ 14 1023.0F
EDISTO     41004 0750            61 74   60/ 10/ 12 1022.1R
WVE H/P(F/S)=  3/ 8 SWL H/P/D(F/S/D)=  2/100/ 8



..........OFFSHORE BUOYS BEYOND 100 NM OFFSHORE...........
.....IN A TRIANGLE---HAT TO BERMUDA TO BAHAMAS TO HAT.....


STATION/POSITION TIME  SKY/WX   TEMP    WIND        PRES    VSBY
                                AIR SEA DIR/SP/G
                 (UTC)          (F)     (DEG/KT/KT) (MB)    (MI)
150E HAT   41001 NOT AVBL
W BERMUDA  41048 0750            66 73  330/ 16/ 19 1018.4F
WVE H/P(F/S)= 10/10 SWL H/P/D(F/S/D)=  8/ 10/10

ATLANTIC S 41049 0750            73 76  330/ 14/ 17 1014.3F
WVE H/P(F/S)=  5/ 5 SWL H/P/D(F/S/D)=  3/330/ 9

E BAHAMAS  41046 0750            76 78  350/  4/  4 1015.6F
WVE H/P(F/S)=  3/ 8 SWL H/P/D(F/S/D)=  3/ 8

NE BAHAMAS 41047 0750            72 77   10/ 10/ 14 1017.8F
WVE H/P(F/S)=  4/ 6 SWL H/P/D(F/S/D)=  2/340/ 6

120E CANVRL41010 NOT AVBL

END




USA.gov is the U.S. government's official web portal to all federal, state and local government web resources and services.